| time (UTC) | temp F | wind direction | speed knots | gust knots | rain 1hr in | rain 24hr in | rain mn in | humidity % | barometer mb |
| 20260904080411 | 68 | 215 | 0.0 | 0.0 | 0.00 | 0.00 | 0.00 | ||
| 20260904074909 | 69 | 215 | 0.0 | 0.0 | 0.00 | 0.00 | 0.00 | ||
| 20260904073409 | 69 | 215 | 0.0 | 0.0 | 0.00 | 0.00 | 0.00 | ||
| 20260904071909 | 69 | 215 | 0.0 | 0.0 | 0.00 | 0.00 | 0.00 | ||
| 20260904070409 | 69 | 215 | 0.0 | 0.0 | 0.00 | 0.00 | 0.00 | ||
| 20260904064909 | 70 | 215 | 0.0 | 0.0 | 0.00 | 0.00 | 0.00 | ||
| 20260904063409 | 70 | 215 | 0.0 | 0.0 | 0.00 | 0.00 | 0.00 | ||
| 20260904061909 | 71 | 215 | 0.0 | 0.0 | 0.00 | 0.00 | 0.00 | ||
| 20260904060409 | 73 | 215 | 0.0 | 0.0 | 0.00 | 0.00 | 0.00 | ||
| 20260904054909 | 73 | 215 | 0.0 | 0.0 | 0.00 | 0.00 | 0.00 | ||
| 20260904053411 | 73 | 215 | 0.9 | 0.0 | 0.00 | 0.00 | 0.00 | ||
| 20260904051910 | 72 | 174 | 0.0 | 0.0 | 0.00 | 0.00 | 0.00 | ||
| 20260904050409 | 73 | 174 | 0.0 | 0.0 | 0.00 | 0.00 | 0.00 | ||
| 20260904044909 | 74 | 174 | 0.0 | 0.0 | 0.00 | 0.00 | 0.00 | ||
| 20260904043409 | 74 | 149 | 0.0 | 0.9 | 0.00 | 0.00 | 0.00 | ||
| 20260904041909 | 74 | 158 | 0.0 | 0.0 | 0.00 | 0.00 | 0.00 | ||
| 20260904040409 | 74 | 177 | 0.0 | 0.0 | 0.00 | 0.00 | 0.00 | ||
| 20260904033408 | 75 | 301 | 0.0 | 0.0 | 0.00 | 0.00 | 0.00 | ||
| 20260904031909 | 75 | 221 | 0.0 | 0.0 | 0.00 | 0.00 | 0.00 | ||
| 20260904030408 | 76 | 218 | 0.9 | 0.0 | 0.00 | 0.00 | 0.00 | ||
| 20260904024908 | 76 | 263 | 3.5 | 3.5 | 0.00 | 0.00 | 0.00 | ||
| 20260904023408 | 77 | 336 | 0.0 | 0.0 | 0.00 | 0.00 | 0.00 | ||
| 20260904021907 | 78 | 336 | 0.0 | 0.0 | 0.00 | 0.00 | 0.00 | ||
| 20260904020407 | 77 | 336 | 0.0 | 0.0 | 0.00 | 0.00 | 0.00 | ||
| 20260904014906 | 78 | 336 | 0.0 | 0.0 | 0.00 | 0.00 | 0.00 | ||
| 20260904013406 | 80 | 336 | 0.0 | 0.0 | 0.00 | 0.00 | 0.00 | ||
| 20260904011906 | 80 | 336 | 0.0 | 0.0 | 0.00 | 0.00 | 0.00 | ||
| 20260904010405 | 81 | 27 | 0.0 | 0.0 | 0.00 | 0.00 | 0.00 | ||
| 20260904004905 | 83 | 342 | 1.7 | 1.7 | 0.00 | 0.00 | 0.00 | ||
| 20260904003405 | 84 | 3 | 0.9 | 3.5 | 0.00 | 0.00 | 0.00 | ||
| 20260904001905 | 86 | 10 | 1.7 | 1.7 | 0.00 | 0.00 | 0.00 | ||
| 20260904000405 | 82 | 316 | 3.5 | 3.5 | 0.00 | 0.00 | 0.00 | ||
| 20260903234904 | 83 | 359 | 4.3 | 3.5 | 0.00 | 0.00 | 0.00 | ||
| 20260903233404 | 84 | 291 | 7.0 | 7.0 | 0.00 | 0.00 | 0.00 | ||
| 20260903231903 | 84 | 356 | 2.6 | 7.0 | 0.00 | 0.00 | 0.00 | ||
| 20260903230403 | 85 | 359 | 5.2 | 3.5 | 0.00 | 0.00 | 0.00 | ||
| 20260903224902 | 86 | 7 | 6.1 | 3.5 | 0.00 | 0.00 | 0.00 | ||
| 20260903223402 | 88 | 39 | 7.8 | 3.5 | 0.00 | 0.00 | 0.00 | ||
| 20260903220401 | 95 | 343 | 0.9 | 1.7 | 0.00 | 0.00 | 0.00 | ||
| 20260903214900 | 93 | 318 | 1.7 | 0.9 | 0.00 | 0.00 | 0.00 | ||
| 20260903213400 | 91 | 304 | 1.7 | 3.5 | 0.00 | 0.00 | 0.00 | ||
| 20260903211859 | 94 | 83 | 1.7 | 0.9 | 0.00 | 0.00 | 0.00 | ||
| 20260903210359 | 88 | 274 | 0.0 | 0.9 | 0.00 | 0.00 | 0.00 | ||
| 20260903204858 | 93 | 0 | 2.6 | 0.0 | 0.00 | 0.00 | 0.00 | ||
| 20260903203357 | 93 | 300 | 3.5 | 0.9 | 0.00 | 0.00 | 0.00 | ||
| 20260903200356 | 92 | 343 | 0.0 | 0.0 | 0.00 | 0.00 | 0.00 | ||
| 20260903194855 | 94 | 212 | 1.7 | 3.5 | 0.00 | 0.00 | 0.00 | ||
| 20260903193354 | 91 | 359 | 0.0 | 0.0 | 0.00 | 0.00 | 0.00 | ||
| 20260903190353 | 90 | 243 | 0.9 | 0.9 | 0.00 | 0.00 | 0.00 | ||
| 20260903183352 | 89 | 308 | 1.7 | 1.7 | 0.00 | 0.00 | 0.00 | ||
| 20260903181852 | 88 | 308 | 3.5 | 4.3 | 0.00 | 0.00 | 0.00 | ||
| 20260903174851 | 86 | 322 | 1.7 | 0.0 | 0.00 | 0.00 | 0.00 | ||
| 20260903173351 | 86 | 262 | 0.0 | 0.0 | 0.00 | 0.00 | 0.00 | ||
| 20260903171851 | 86 | 330 | 0.0 | 0.0 | 0.00 | 0.00 | 0.00 | ||
| 20260903170350 | 88 | 250 | 0.0 | 0.0 | 0.00 | 0.00 | 0.00 | ||
| 20260903164849 | 87 | 248 | 3.5 | 5.2 | 0.00 | 0.00 | 0.00 | ||
| 20260903163349 | 85 | 188 | 2.6 | 4.3 | 0.00 | 0.00 | 0.00 | ||
| 20260903161849 | 86 | 277 | 1.7 | 0.0 | 0.00 | 0.00 | 0.00 | ||
| 20260903154849 | 87 | 190 | 0.9 | 0.0 | 0.00 | 0.00 | 0.00 | ||
| 20260903153349 | 81 | 205 | 0.0 | 0.0 | 0.00 | 0.00 | 0.00 | ||
| 20260903151849 | 82 | 180 | 1.7 | 1.7 | 0.00 | 0.00 | 0.00 | ||
| 20260903150349 | 82 | 195 | 0.0 | 0.0 | 0.00 | 0.00 | 0.00 | ||
| 20260903144849 | 76 | 207 | 0.0 | 0.0 | 0.00 | 0.00 | 0.00 | ||
| 20260903143349 | 76 | 207 | 0.0 | 0.0 | 0.00 | 0.00 | 0.00 | ||
| 20260903141849 | 69 | 200 | 0.0 | 0.0 | 0.00 | 0.00 | 0.00 | ||
| 20260903140349 | 66 | 200 | 0.0 | 0.0 | 0.00 | 0.00 | 0.00 | ||
| 20260903134849 | 62 | 200 | 0.0 | 0.0 | 0.00 | 0.00 | 0.00 | ||
| 20260903133350 | 63 | 200 | 0.0 | 0.0 | 0.00 | 0.00 | 0.00 | ||
| 20260903131850 | 60 | 200 | 0.0 | 0.0 | 0.00 | 0.00 | 0.00 | ||
| 20260903130350 | 59 | 200 | 0.0 | 0.0 | 0.00 | 0.00 | 0.00 | ||
| 20260903124851 | 58 | 200 | 0.0 | 0.0 | 0.00 | 0.00 | 0.00 | ||
| 20260903123352 | 61 | 200 | 0.0 | 0.0 | 0.00 | 0.00 | 0.00 | ||
| 20260903121852 | 63 | 200 | 0.0 | 0.0 | 0.00 | 0.00 | 0.00 | ||
| 20260903120351 | 61 | 200 | 0.0 | 0.0 | 0.00 | 0.00 | 0.00 | ||
| 20260903114852 | 60 | 200 | 0.0 | 0.0 | 0.00 | 0.00 | 0.00 | ||
| 20260903113352 | 61 | 200 | 0.0 | 0.0 | 0.00 | 0.00 | 0.00 | ||
| 20260903111852 | 64 | 200 | 0.0 | 0.0 | 0.00 | 0.00 | 0.00 | ||
| 20260903110353 | 64 | 200 | 0.0 | 0.0 | 0.00 | 0.00 | 0.00 | ||
| 20260903104853 | 65 | 200 | 0.0 | 0.0 | 0.00 | 0.00 | 0.00 | ||
| 20260903103353 | 64 | 200 | 0.0 | 0.0 | 0.00 | 0.00 | 0.00 | ||
| 20260903101854 | 63 | 200 | 0.0 | 0.0 | 0.00 | 0.00 | 0.00 | ||
| 20260903100354 | 64 | 200 | 0.0 | 0.0 | 0.00 | 0.00 | 0.00 | ||
| 20260903094854 | 63 | 200 | 0.0 | 0.0 | 0.00 | 0.00 | 0.00 | ||
| 20260903093354 | 63 | 200 | 0.9 | 0.0 | 0.00 | 0.00 | 0.00 | ||
| 20260903091855 | 64 | 359 | 0.0 | 0.0 | 0.00 | 0.00 | 0.00 | ||
| 20260903090355 | 64 | 359 | 0.0 | 0.0 | 0.00 | 0.00 | 0.00 | ||
| 20260903084855 | 64 | 359 | 0.0 | 0.0 | 0.00 | 0.00 | 0.00 | ||
| 20260903083355 | 63 | 359 | 0.0 | 0.0 | 0.00 | 0.00 | 0.00 | ||
| 20260903081855 | 62 | 359 | 0.0 | 0.0 | 0.00 | 0.00 | 0.00 |